Location: ????
(32.1223°N, 34.8329°E)
Time: 04:23:17
(UTC+00:00)

Daily predictions for brighter satellites

Satellite Brightness Start Highest point End
(mag) Time Altitude Azimuth Time Altitude Azimuth Time Altitude Azimuth
Cosmos 1980 Rocket 4.1 00:23:49 24° NNE 00:23:49 24° NNE 00:25:55 10° NNE
Cosmos 2322 Rocket 4.5 00:26:07 16° ESE 00:27:22 17° E 00:30:59 10° ENE
SL-16 R/B 3.8 00:35:54 27° ESE 00:36:13 27° ESE 00:40:54 10° NE
BREEZE-M DEB (TANK) 4.2 00:57:54 60° NW 00:58:34 62° NNW 01:17:32 10° ENE
IDEFIX/ARIANE 42P 4.0 00:53:32 10° N 00:56:03 29° N 00:56:03 29° N
CZ-2C R/B 3.8 01:00:54 10° NNE 01:05:40 37° E 01:08:06 24° SSE
NOSS 3-3 (A) 4.3 01:09:13 48° NNW 01:09:13 48° NNW 01:14:05 10° NNE
NOSS 3-3 (C) 4.3 01:09:23 48° NNW 01:09:23 48° NNW 01:14:10 10° NNE
SL-4 R/B 3.4 01:10:15 42° NE 01:10:15 42° NE 01:13:25 10° NE
Cosmos 1238 Rocket 3.7 01:18:21 10° N 01:24:47 73° W 01:25:25 67° SW
Cosmos 1727 Rocket 4.3 01:19:17 13° S 01:25:00 66° E 01:31:16 10° NNE
SJ 16-02 2.7 01:22:23 10° N 01:26:30 39° ENE 01:30:36 10° SE
H-2A R/B 2.6 01:23:46 10° SSE 01:27:59 58° ENE 01:32:21 10° N
PAYLOAD A 3.8 01:24:27 10° NNE 01:29:09 76° ESE 01:29:52 62° SSE
Cosmos 468 Rocket 3.9 01:29:05 72° SSW 01:29:39 88° WNW 01:34:57 10° NNE
PSLV R/B 3.7 01:25:42 10° NNE 01:29:48 69° E 01:29:48 69° E
Cosmos 1339 Rocket 4.4 01:30:54 58° WSW 01:31:22 60° W 01:37:32 10° N
ADEOS Rocket 4.4 01:25:20 10° SE 01:31:48 41° ENE 01:37:42 10° N
Landsat 5 3.5 01:36:34 10° SSE 01:41:05 89° ENE 01:45:36 10° NNW
USA 234 3.9 01:37:07 10° ESE 01:43:27 55° NE 01:49:47 10° NNW
Meteor 1-11 Rocket 4.5 01:38:26 10° N 01:44:02 53° E 01:49:29 10° SSE
CZ-4B R/B 4.1 01:44:40 10° ESE 01:47:00 20° ENE 01:49:23 10° NNE
Meteor 1-27 Rocket 3.9 01:42:24 10° S 01:48:19 81° E 01:54:15 10° N
ALOS 3.8 01:45:29 10° NNE 01:49:47 36° E 01:54:03 10° SSE
ERS-2 2.6 01:49:48 10° SSE 01:53:24 61° ENE 01:57:01 10° N
Cosmos 2360 Rocket 2.8 01:48:38 10° S 01:54:10 58° ESE 01:59:43 10° NNE
Chandra Rocket (1) 4.1 01:46:28 27° W 01:54:52 53° SSW 02:00:18 10° SE
Cosmos 1980 Rocket 4.2 02:05:36 11° NW 02:05:36 11° NW 02:06:52 10° NW
Cosmos 1484 Rocket 3.5 02:01:33 10° NNE 02:05:29 56° E 02:09:25 10° S
Cosmos 1898 Rocket 3.9 02:01:16 10° N 02:06:31 68° ENE 02:11:46 10° SSE
IRIDIUM 104 4.4 02:04:04 10° NNW 02:09:06 50° W 02:14:06 10° SSW
Cosmos 1536 3.2 02:06:37 10° N 02:10:41 66° E 02:14:41 10° SSE
Cosmos 2322 Rocket 2.4 02:08:00 26° SW 02:10:54 49° WNW 02:16:25 10° N
FENGYUN 3A 4.0 02:06:16 10° NNE 02:11:39 69° ESE 02:17:01 10° S
X-37B 3.4 02:10:35 10° N 02:11:59 12° NNE 02:13:23 10° NE
Cosmos 2208 Rocket 4.1 02:08:37 10° SSW 02:13:53 82° ESE 02:19:06 10° NNE
Cosmos 1437 Rocket 4.1 02:10:31 10° SSE 02:14:01 39° E 02:17:35 10° NNE
ATLAS CENTAUR Rocket 3.2 02:04:43 22° W 02:14:18 69° S 02:18:51 10° ESE
Meteor 1-31 Rocket 3.2 02:13:06 10° NNE 02:16:54 62° E 02:20:43 10° S
deb Chang Zheng 4 3.4 02:13:13 10° N 02:17:29 73° WNW 02:21:42 10° SSW
Cosmos 2263 Rocket 2.2 02:12:40 10° NNW 02:18:15 62° WSW 02:23:49 10° S
SL-16 R/B 2.9 02:17:49 24° WSW 02:20:07 32° WNW 02:25:10 10° N
Cosmos 2237 4.1 02:15:23 10° SSW 02:21:04 72° WNW 02:26:47 10° NNE
Cosmos 1707 Rocket 4.1 02:20:29 22° SW 02:22:31 34° W 02:26:29 10° NNW
Cosmos 2173 Rocket 4.2 02:16:21 10° N 02:22:43 80° E 02:29:05 10° S
USA 32 4.0 02:18:45 10° NNW 02:23:54 59° W 02:29:02 10° S
Yuri Rocket 4.5 02:27:30 14° SW 02:31:00 35° SSE 02:36:14 10° E
Cosmos 1937 Rocket 3.5 02:27:19 10° NNW 02:32:28 85° ENE 02:37:35 10° SSE
Cosmos 1814 Rocket 4.0 02:27:45 10° SSW 02:32:52 65° WNW 02:38:05 10° N
ADEOS 3.7 02:28:41 10° N 02:33:44 52° WNW 02:38:46 10° SSW
Cosmos 841 Rocket 3.7 02:29:46 10° SW 02:34:46 47° WNW 02:39:49 10° N
Cosmos 1666 3.3 02:33:43 10° NNW 02:37:08 32° W 02:40:30 10° SSW
Cosmos 44 Rocket 3.8 02:37:49 13° WSW 02:41:31 37° WNW 02:45:59 10° N
Cosmos 2061 Rocket 4.4 02:35:07 10° N 02:41:34 74° E 02:47:57 10° S
SAR-Lupe-4 3.5 02:39:02 10° S 02:42:35 67° WSW 02:46:10 10° NNW
CZ-2C R/B 3.8 02:39:45 10° NNW 02:43:35 21° WNW 02:47:25 10° WSW
Skynet4D Del rocket 4.3 02:39:27 14° WSW 02:43:52 43° S 02:49:44 10° ESE
Cosmos 2219 Rocket 3.1 02:39:18 10° S 02:44:45 53° ESE 02:50:16 10° NNE
Cosmos 1733 Rocket 3.0 02:42:51 10° NNW 02:47:06 57° W 02:51:19 10° S
SL-4 R/B 4.1 02:45:52 10° WNW 02:48:58 18° NNW 02:52:17 10° NNE
COSMOS 2428 3.7 02:44:28 10° S 02:49:56 51° ESE 02:55:27 10° NNE
Meteor 2-20 Rocket 4.4 02:44:25 10° S 02:50:34 78° W 02:56:44 10° N
Cosmos 2016 Rocket 4.0 02:47:13 10° N 02:53:20 87° W 02:59:25 10° S
SAR-Lupe-1 4.3 02:51:21 10° S 02:54:46 46° W 02:58:13 10° NNW
Cosmos 1862 Rocket 4.3 02:52:47 10° SW 02:56:40 30° W 03:00:33 10° NNW
NOSS 3-4 (A) 4.4 02:49:45 10° NNW 02:57:02 68° ENE 03:04:59 10° SE
NOSS 3-4 (C) 4.4 02:49:51 10° NNW 02:57:08 68° ENE 03:05:05 10° SE
Cosmos 2333 Rocket 2.4 02:54:04 10° SSW 02:59:49 83° ESE 03:05:36 10° NNE
Meteor 1-18 Rocket 4.2 02:57:19 10° S 03:02:51 78° W 03:08:24 10° N
SJ 16-02 3.0 03:02:37 10° WNW 03:04:39 13° W 03:06:41 10° WSW
SJ-12 4.1 03:00:44 10° N 03:04:45 51° WNW 03:08:45 10° SSW
